{"data":{"norad_id":69327,"epoch":"2026-06-30T18:29:13.153632Z","epoch_age_seconds":7091517,"freshness":"OLD","line1":"1 69327U 26121C   26181.77029113  .00000591  00000+0  30990-3 0  9995","line2":"2 69327  89.0332 298.9727 0193715 323.7512  35.0669 14.04091603  4132","mean_motion":14.04091603,"eccentricity":0.0193715,"inclination_deg":89.0332,"raan_deg":298.9727,"arg_perigee_deg":323.7512,"mean_anomaly_deg":35.0669,"bstar":0.0003099,"rev_number":413,"period_min":102.55741127739,"perigee_km":739.06661890203,"apogee_km":1020.2554889044,"semimajor_km":7257.7980539032,"source":"CELESTRAK","updated_at":"2026-07-01T09:00:33.260497Z"}}